Location: McFarlands Corners
(41.4117°N, 81.3382°W)
Time: 08:02:23
(UTC+00:00)

BlueWalker 3 - Pass Details

Date: 22 January 2026
Orbit: 450 x 461 km, 53.2° (Epoch: 11 February)

Event Time Altitude Azimuth Distance (km) Brightness Sun altitude
Rises 22:58:46 0° 213° (SSW) 2,444 6.4 -5.9°
Reaches altitude 10° 23:00:57 10° 206° (SSW) 1,574 5.2 -6.3°
Maximum altitude 23:04:18 41° 135° (SE) 668 2.4 -6.9°
Drops below altitude 10° 23:07:40 10° 64° (ENE) 1,581 3.8 -7.5°
Enters shadow 23:07:44 10° 64° (ENE) 1,609 3.8 -7.5°
